Year,Month,Day,Hour,Minute,Value (Times are PST for temperature in C)
2008,07,11,00,00,14.80
2008,07,11,00,01,14.80
2008,07,11,00,02,14.70
2008,07,11,00,03,14.60
2008,07,11,00,04,14.60
2008,07,11,00,05,14.50
2008,07,11,00,06,14.40
2008,07,11,00,07,14.40
2008,07,11,00,08,14.30
2008,07,11,00,09,14.20
2008,07,11,00,10,14.20
2008,07,11,00,11,14.20
2008,07,11,00,12,14.10
2008,07,11,01,02,12.30
2008,07,11,01,03,12.30
2008,07,11,01,04,12.30
2008,07,11,01,05,12.30
2008,07,11,01,06,12.30
2008,07,11,01,07,12.30
2008,07,11,01,08,12.30
2008,07,11,01,09,12.30
2008,07,11,01,10,12.30
2008,07,11,01,11,12.30
2008,07,11,01,12,12.30
2008,07,11,01,13,12.30
2008,07,11,01,14,12.30
2008,07,11,01,15,12.20
2008,07,11,01,16,12.20
2008,07,11,01,17,12.20
2008,07,11,01,18,12.10
2008,07,11,01,19,12.10
2008,07,11,01,20,12.10
2008,07,11,01,21,12.00
2008,07,11,01,22,12.00
2008,07,11,01,23,12.00
2008,07,11,01,24,12.00
2008,07,11,01,25,11.90
2008,07,11,01,26,11.90
2008,07,11,01,27,11.90
2008,07,11,01,28,11.80
2008,07,11,01,29,11.80
2008,07,11,01,30,11.80
2008,07,11,01,31,11.80
2008,07,11,01,32,11.80
2008,07,11,01,33,11.70
2008,07,11,01,34,11.70
2008,07,11,01,35,11.70
2008,07,11,01,36,11.70
2008,07,11,01,37,11.60
2008,07,11,01,38,11.60
2008,07,11,01,39,11.60
2008,07,11,01,40,11.60
2008,07,11,01,41,11.60
2008,07,11,01,42,11.60
2008,07,11,01,43,11.60
2008,07,11,01,44,11.60
2008,07,11,01,45,11.60
2008,07,11,01,46,11.40
2008,07,11,01,47,11.40
2008,07,11,01,48,11.40
2008,07,11,01,49,11.40
2008,07,11,01,50,11.40
2008,07,11,01,51,11.40
2008,07,11,01,52,11.40
2008,07,11,01,53,11.40
2008,07,11,01,54,11.40
2008,07,11,01,55,11.30
2008,07,11,01,56,11.30
2008,07,11,01,57,11.30
2008,07,11,01,58,11.30
2008,07,11,01,59,11.20
2008,07,11,02,00,11.20
2008,07,11,02,01,11.20
2008,07,11,02,02,11.20
2008,07,11,02,03,11.20
2008,07,11,02,04,11.20
2008,07,11,02,05,11.20
2008,07,11,02,06,11.20
2008,07,11,02,07,11.20
2008,07,11,02,08,11.20
2008,07,11,02,09,11.10
2008,07,11,02,10,11.10
2008,07,11,02,11,11.10
2008,07,11,02,12,11.10
2008,07,11,02,13,11.10
2008,07,11,02,14,11.10
2008,07,11,02,15,11.10
2008,07,11,02,16,11.10
2008,07,11,02,17,11.10
2008,07,11,02,18,11.10
2008,07,11,02,19,11.10
2008,07,11,02,20,11.10
2008,07,11,02,21,11.10
2008,07,11,02,22,11.10
2008,07,11,02,23,11.10
2008,07,11,02,24,11.10
2008,07,11,02,25,11.10
2008,07,11,02,26,11.10
2008,07,11,02,27,11.10
2008,07,11,02,28,11.10
2008,07,11,02,29,11.10
2008,07,11,02,30,11.10
2008,07,11,02,31,11.10
2008,07,11,02,32,11.10
2008,07,11,02,33,10.90
2008,07,11,02,34,10.90
2008,07,11,02,35,10.90
2008,07,11,02,36,10.90
2008,07,11,02,37,10.90
2008,07,11,02,38,10.90
2008,07,11,02,39,10.90
2008,07,11,02,40,10.90
2008,07,11,02,41,10.90
2008,07,11,02,42,10.80
2008,07,11,02,43,10.80
2008,07,11,02,44,10.80
2008,07,11,02,45,10.80
2008,07,11,02,46,10.70
2008,07,11,02,47,10.70
2008,07,11,02,48,10.70
2008,07,11,02,49,10.70
2008,07,11,02,50,10.60
2008,07,11,02,51,10.60
2008,07,11,02,52,10.60
2008,07,11,02,53,10.60
2008,07,11,02,54,10.60
2008,07,11,02,55,10.60
2008,07,11,02,56,10.60
2008,07,11,02,57,10.60
2008,07,11,02,58,10.60
2008,07,11,02,59,10.60
2008,07,11,03,00,10.50
2008,07,11,03,01,10.40
2008,07,11,03,02,10.40
2008,07,11,03,03,10.40
2008,07,11,03,04,10.40
2008,07,11,03,05,10.40
2008,07,11,03,06,10.40
2008,07,11,03,07,10.40
2008,07,11,03,08,10.40
2008,07,11,03,09,10.40
2008,07,11,03,10,10.40
2008,07,11,03,11,10.40
2008,07,11,03,12,10.40
2008,07,11,03,13,10.40
2008,07,11,03,14,10.40
2008,07,11,03,15,10.40
2008,07,11,03,16,10.40
2008,07,11,03,17,10.40
2008,07,11,03,18,10.40
2008,07,11,03,19,10.40
2008,07,11,03,20,10.40
2008,07,11,03,21,10.40
2008,07,11,03,22,10.40
2008,07,11,03,23,10.40
2008,07,11,03,24,10.40
2008,07,11,03,25,10.40
2008,07,11,03,26,10.40
2008,07,11,03,27,10.40
2008,07,11,03,28,10.40
2008,07,11,03,29,10.40
2008,07,11,03,30,10.40
2008,07,11,03,31,10.40
2008,07,11,03,32,10.40
2008,07,11,03,33,10.40
2008,07,11,03,34,10.40
2008,07,11,03,35,10.30
2008,07,11,03,36,10.30
2008,07,11,03,37,10.30
2008,07,11,03,38,10.30
2008,07,11,03,39,10.20
2008,07,11,03,40,10.20
2008,07,11,03,41,10.20
2008,07,11,03,42,10.20
2008,07,11,03,43,10.10
2008,07,11,03,44,10.10
2008,07,11,03,45,10.10
2008,07,11,03,46,10.10
2008,07,11,03,47,10.10
2008,07,11,03,48,10.10
2008,07,11,03,49,10.10
2008,07,11,03,50,10.10
2008,07,11,03,51,10.10
2008,07,11,03,52,10.00
2008,07,11,03,53,9.90
2008,07,11,03,54,9.90
2008,07,11,03,55,9.90
2008,07,11,03,56,9.90
2008,07,11,03,57,9.90
2008,07,11,03,58,9.90
2008,07,11,03,59,9.90
2008,07,11,04,00,9.90
2008,07,11,04,01,9.90
2008,07,11,04,02,9.90
2008,07,11,04,03,9.80
2008,07,11,04,04,9.80
2008,07,11,04,05,9.80
2008,07,11,04,06,9.80
2008,07,11,04,07,9.80
2008,07,11,04,08,9.80
2008,07,11,04,09,9.70
2008,07,11,04,10,9.70
2008,07,11,04,11,9.70
2008,07,11,04,12,9.70
2008,07,11,04,13,9.70
2008,07,11,04,14,9.70
2008,07,11,04,15,9.70
2008,07,11,04,16,9.70
2008,07,11,04,17,9.70
2008,07,11,04,18,9.70
2008,07,11,04,19,9.70
2008,07,11,04,20,9.70
2008,07,11,04,21,9.70
2008,07,11,04,22,9.70
2008,07,11,04,23,9.70
2008,07,11,04,24,9.70
2008,07,11,04,25,9.70
2008,07,11,04,26,9.70
2008,07,11,04,27,9.70
2008,07,11,04,28,9.70
2008,07,11,04,29,9.70
2008,07,11,04,30,9.70
2008,07,11,04,31,9.60
2008,07,11,04,32,9.60
2008,07,11,04,33,9.60
2008,07,11,04,34,9.60
2008,07,11,04,35,9.60
2008,07,11,04,36,9.60
2008,07,11,04,37,9.60
2008,07,11,04,38,9.60
2008,07,11,04,39,9.60
2008,07,11,04,40,9.60
2008,07,11,04,41,9.60
2008,07,11,04,42,9.50
2008,07,11,04,43,9.50
2008,07,11,04,44,9.50
2008,07,11,04,45,9.50
2008,07,11,04,46,9.50
2008,07,11,04,47,9.50
2008,07,11,04,48,9.50
2008,07,11,04,49,9.50
2008,07,11,04,50,9.50
2008,07,11,04,51,9.50
2008,07,11,04,52,9.50
2008,07,11,04,53,9.50
2008,07,11,04,54,9.50
2008,07,11,04,55,9.50
2008,07,11,04,56,9.50
2008,07,11,04,57,9.50
2008,07,11,04,58,9.50
2008,07,11,04,59,9.50
2008,07,11,05,00,9.50
2008,07,11,05,01,9.50
2008,07,11,05,02,9.50
2008,07,11,05,03,9.50
2008,07,11,05,04,9.50
2008,07,11,05,05,9.50
2008,07,11,05,06,9.50
2008,07,11,05,07,9.50
2008,07,11,05,08,9.50
2008,07,11,05,09,9.50
2008,07,11,05,10,9.50
2008,07,11,05,11,9.50
2008,07,11,05,12,9.50
2008,07,11,05,13,9.50
2008,07,11,05,14,9.50
2008,07,11,05,15,9.50
2008,07,11,05,16,9.50
2008,07,11,05,17,9.50
2008,07,11,05,18,9.50
2008,07,11,05,19,9.50
2008,07,11,05,20,9.50
2008,07,11,05,21,9.50
2008,07,11,05,22,9.50
2008,07,11,05,23,9.50
2008,07,11,05,24,9.50
2008,07,11,05,25,9.50
2008,07,11,05,26,9.50
2008,07,11,05,27,9.50
2008,07,11,05,28,9.50
2008,07,11,05,29,9.40
2008,07,11,05,30,9.40
2008,07,11,05,31,9.40
2008,07,11,05,32,9.40
2008,07,11,05,33,9.40
2008,07,11,05,34,9.40
2008,07,11,05,35,9.40
2008,07,11,05,36,9.40
2008,07,11,05,37,9.30
2008,07,11,05,38,9.30
2008,07,11,05,39,9.30
2008,07,11,05,40,9.30
2008,07,11,05,41,9.30
2008,07,11,05,42,9.30
2008,07,11,05,43,9.30
2008,07,11,05,44,9.20
2008,07,11,05,45,9.20
2008,07,11,05,46,9.20
2008,07,11,05,47,9.20
2008,07,11,05,48,9.20
2008,07,11,05,49,9.20
2008,07,11,05,50,9.20
2008,07,11,05,51,9.20
2008,07,11,05,52,9.30
2008,07,11,05,53,9.30
2008,07,11,05,54,9.30
2008,07,11,05,55,9.30
2008,07,11,05,56,9.30
2008,07,11,05,57,9.30
2008,07,11,05,58,9.40
2008,07,11,05,59,9.40
2008,07,11,06,00,9.40
2008,07,11,06,01,9.40
2008,07,11,06,02,9.40
2008,07,11,06,03,9.40
2008,07,11,06,04,9.40
2008,07,11,06,05,9.50
2008,07,11,06,06,9.50
2008,07,11,06,07,9.50
2008,07,11,06,08,9.50
2008,07,11,06,09,9.50
2008,07,11,06,10,9.50
2008,07,11,06,11,9.60
2008,07,11,06,12,9.60
2008,07,11,06,13,9.60
2008,07,11,06,14,9.60
2008,07,11,06,15,9.60
2008,07,11,06,16,9.60
2008,07,11,06,17,9.70
2008,07,11,06,18,9.70
2008,07,11,06,19,9.70
2008,07,11,06,20,9.70
2008,07,11,06,21,9.70
2008,07,11,06,22,9.70
2008,07,11,06,23,9.70
2008,07,11,06,24,9.70
2008,07,11,06,25,9.70
2008,07,11,06,26,9.80
2008,07,11,06,27,9.80
2008,07,11,06,28,9.80
2008,07,11,06,29,9.80
2008,07,11,06,30,9.80
2008,07,11,06,31,9.80
2008,07,11,06,32,9.80
2008,07,11,06,33,9.90
2008,07,11,06,34,9.90
2008,07,11,06,35,9.90
2008,07,11,06,36,9.90
2008,07,11,06,37,9.90
2008,07,11,06,38,9.90
2008,07,11,06,39,9.90
2008,07,11,06,40,10.00
2008,07,11,06,41,10.10
2008,07,11,06,42,10.10
2008,07,11,06,43,10.10
2008,07,11,06,44,10.10
2008,07,11,06,45,10.10
2008,07,11,06,46,10.10
2008,07,11,06,47,10.20
2008,07,11,06,48,10.20
2008,07,11,06,49,10.30
2008,07,11,06,50,10.40
2008,07,11,06,51,10.40
2008,07,11,06,52,10.40
2008,07,11,06,53,10.50
2008,07,11,06,54,10.60
2008,07,11,06,55,10.60
2008,07,11,06,56,10.60
2008,07,11,06,57,10.70
2008,07,11,06,58,10.70
2008,07,11,06,59,10.80
2008,07,11,07,00,10.80
2008,07,11,07,01,10.90
2008,07,11,07,02,10.90
2008,07,11,07,03,10.90
2008,07,11,07,04,11.10
2008,07,11,07,05,11.10
2008,07,11,07,06,11.10
2008,07,11,07,07,11.20
2008,07,11,07,08,11.20
2008,07,11,07,09,11.30
2008,07,11,07,10,11.30
2008,07,11,07,11,11.40
2008,07,11,07,12,11.40
2008,07,11,07,13,11.40
2008,07,11,07,14,11.40
2008,07,11,07,15,11.50
2008,07,11,07,16,11.60
2008,07,11,07,17,11.60
2008,07,11,07,18,11.60
2008,07,11,07,19,11.70
2008,07,11,07,20,11.80
2008,07,11,07,21,11.80
2008,07,11,07,22,11.90
2008,07,11,07,23,11.90
2008,07,11,07,24,12.00
2008,07,11,07,25,12.00
2008,07,11,07,26,12.00
2008,07,11,07,27,12.10
2008,07,11,07,28,12.10
2008,07,11,07,29,12.20
2008,07,11,07,30,12.20
2008,07,11,07,31,12.30
2008,07,11,07,32,12.30
2008,07,11,07,33,12.40
2008,07,11,07,34,12.40
2008,07,11,07,35,12.50
2008,07,11,07,36,12.50
2008,07,11,07,37,12.60
2008,07,11,07,38,12.70
2008,07,11,07,39,12.80
2008,07,11,07,40,12.90
2008,07,11,07,41,13.00
2008,07,11,07,42,13.10
2008,07,11,07,43,13.20
2008,07,11,07,44,13.30
2008,07,11,07,45,13.40
2008,07,11,07,46,13.50
2008,07,11,07,47,13.50
2008,07,11,07,48,13.60
2008,07,11,07,49,13.70
2008,07,11,07,50,13.70
2008,07,11,07,51,13.80
2008,07,11,07,52,13.80
2008,07,11,07,53,13.80
2008,07,11,07,54,13.90
2008,07,11,07,55,13.90
2008,07,11,07,56,13.90
2008,07,11,07,57,13.90
2008,07,11,07,58,14.00
2008,07,11,07,59,14.00
2008,07,11,08,00,14.00
2008,07,11,08,01,14.00
2008,07,11,08,02,14.00
2008,07,11,08,03,14.10
2008,07,11,08,04,14.10
2008,07,11,08,05,14.10
2008,07,11,08,06,14.20
2008,07,11,08,07,14.20
2008,07,11,08,08,14.20
2008,07,11,08,09,14.20
2008,07,11,08,10,14.20
2008,07,11,08,11,14.20
2008,07,11,08,12,14.20
2008,07,11,08,13,14.20
2008,07,11,08,14,14.20
2008,07,11,08,15,14.20
2008,07,11,08,16,14.20
2008,07,11,08,17,14.30
2008,07,11,08,18,14.30
2008,07,11,08,19,14.30
2008,07,11,08,20,14.30
2008,07,11,08,21,14.30
2008,07,11,08,22,14.30
2008,07,11,08,23,14.30
2008,07,11,08,24,14.30
2008,07,11,08,25,14.30
2008,07,11,08,26,14.30
2008,07,11,08,27,14.30
2008,07,11,08,28,14.30
2008,07,11,08,29,14.30
2008,07,11,08,30,14.30
2008,07,11,08,31,14.30
2008,07,11,08,32,14.30
2008,07,11,08,33,14.30
2008,07,11,08,34,14.30
2008,07,11,08,35,14.20
2008,07,11,08,36,14.20
2008,07,11,08,37,14.30
2008,07,11,08,38,14.30
2008,07,11,08,39,14.30
2008,07,11,08,40,14.30
2008,07,11,08,41,14.30
2008,07,11,08,42,14.30
2008,07,11,08,43,14.30
2008,07,11,08,44,14.30
2008,07,11,08,45,14.40
2008,07,11,08,46,14.40
2008,07,11,08,47,14.40
2008,07,11,08,48,14.40
2008,07,11,08,49,14.40
2008,07,11,08,50,14.40
2008,07,11,08,51,14.40
2008,07,11,08,52,14.40
2008,07,11,08,53,14.40
2008,07,11,08,54,14.40
2008,07,11,08,55,14.40
2008,07,11,08,56,14.40
2008,07,11,08,57,14.40
2008,07,11,08,58,14.40
2008,07,11,08,59,14.50
2008,07,11,09,00,14.50
2008,07,11,09,01,14.50
2008,07,11,09,02,14.50
2008,07,11,09,03,14.50
2008,07,11,09,04,14.50
2008,07,11,09,05,14.50
2008,07,11,09,06,14.50
2008,07,11,09,07,14.50
2008,07,11,09,08,14.50
2008,07,11,09,09,14.50
2008,07,11,09,10,14.50
2008,07,11,09,11,14.50
2008,07,11,09,12,14.60
2008,07,11,09,13,14.60
2008,07,11,09,14,14.60
2008,07,11,09,15,14.60
2008,07,11,09,16,14.60
2008,07,11,09,17,14.70
2008,07,11,09,18,14.70
2008,07,11,09,19,14.70
2008,07,11,09,20,14.70
2008,07,11,09,21,14.70
2008,07,11,09,22,14.70
2008,07,11,09,23,14.80
2008,07,11,09,24,14.90
2008,07,11,09,25,14.90
2008,07,11,09,26,14.90
2008,07,11,09,27,15.00
2008,07,11,09,28,15.00
2008,07,11,09,29,15.00
2008,07,11,09,30,15.00
2008,07,11,09,31,15.00
2008,07,11,09,32,15.00
2008,07,11,09,33,15.00
2008,07,11,09,34,15.00
2008,07,11,09,35,15.10
2008,07,11,09,36,15.10
2008,07,11,09,37,15.10
2008,07,11,09,38,15.00
2008,07,11,09,39,15.00
2008,07,11,09,40,15.10
2008,07,11,09,41,15.10
2008,07,11,09,42,15.10
2008,07,11,09,43,15.10
2008,07,11,09,44,15.00
2008,07,11,09,45,15.00
2008,07,11,09,46,15.00
2008,07,11,09,47,15.00
2008,07,11,09,48,15.00
2008,07,11,09,49,15.00
2008,07,11,09,50,15.10
2008,07,11,09,51,15.10
2008,07,11,09,52,15.10
2008,07,11,09,53,15.20
2008,07,11,09,54,15.20
2008,07,11,09,55,15.20
2008,07,11,09,56,15.30
2008,07,11,09,57,15.30
2008,07,11,09,58,15.30
2008,07,11,09,59,15.30
2008,07,11,10,00,15.30
2008,07,11,10,01,15.30
2008,07,11,10,02,15.30
2008,07,11,10,03,15.40
2008,07,11,10,04,15.30
2008,07,11,10,05,15.40
2008,07,11,10,06,15.40
2008,07,11,10,07,15.40
2008,07,11,10,08,15.40
2008,07,11,10,09,15.50
2008,07,11,10,10,15.60
2008,07,11,10,11,15.60
2008,07,11,10,12,15.70
2008,07,11,10,13,15.70
2008,07,11,10,14,15.80
2008,07,11,10,15,15.80
2008,07,11,10,16,15.70
2008,07,11,10,17,15.70
2008,07,11,10,18,15.80
2008,07,11,10,19,15.80
2008,07,11,10,20,15.80
2008,07,11,10,21,15.80
2008,07,11,10,22,15.80
2008,07,11,10,23,15.90
2008,07,11,10,24,15.90
2008,07,11,10,25,16.10
2008,07,11,10,26,16.10
2008,07,11,10,27,16.10
2008,07,11,10,28,16.10
2008,07,11,10,29,16.10
2008,07,11,10,30,16.10
2008,07,11,10,31,16.10
2008,07,11,10,32,16.10
2008,07,11,10,33,16.10
2008,07,11,10,34,16.20
2008,07,11,10,35,16.20
2008,07,11,10,36,16.30
2008,07,11,10,37,16.30
2008,07,11,10,38,16.40
2008,07,11,10,39,16.40
2008,07,11,10,40,16.40
2008,07,11,10,41,16.40
2008,07,11,10,42,16.40
2008,07,11,10,43,16.50
2008,07,11,10,44,16.60
2008,07,11,10,45,16.60
2008,07,11,10,46,16.70
2008,07,11,10,47,16.70
2008,07,11,10,48,16.50
2008,07,11,10,49,16.40
2008,07,11,10,50,16.20
2008,07,11,10,51,16.10
2008,07,11,10,52,16.10
2008,07,11,10,53,16.00
2008,07,11,10,54,16.00
2008,07,11,10,55,16.10
2008,07,11,10,56,16.10
2008,07,11,10,57,16.20
2008,07,11,10,58,16.30
2008,07,11,10,59,16.40
2008,07,11,11,00,16.50
2008,07,11,11,01,16.60
2008,07,11,11,02,16.70
2008,07,11,11,03,16.70
2008,07,11,11,04,16.70
2008,07,11,11,05,16.80
2008,07,11,11,06,16.80
2008,07,11,11,07,16.80
2008,07,11,11,08,16.80
2008,07,11,11,09,16.80
2008,07,11,11,10,16.80
2008,07,11,11,11,16.80
2008,07,11,11,12,16.80
2008,07,11,11,13,16.80
2008,07,11,11,14,16.80
2008,07,11,11,15,16.70
2008,07,11,11,16,16.70
2008,07,11,11,17,16.80
2008,07,11,11,18,16.80
2008,07,11,11,19,16.80
2008,07,11,11,20,16.90
2008,07,11,11,21,16.90
2008,07,11,11,22,16.90
2008,07,11,11,23,16.90
2008,07,11,11,24,16.90
2008,07,11,11,25,16.90
2008,07,11,11,26,16.80
2008,07,11,11,27,16.70
2008,07,11,11,28,16.70
2008,07,11,11,29,16.70
2008,07,11,11,30,16.70
2008,07,11,11,31,16.70
2008,07,11,11,32,16.70
2008,07,11,11,33,16.60
2008,07,11,11,34,16.60
2008,07,11,11,35,16.50
2008,07,11,11,36,16.60
2008,07,11,11,37,16.60
2008,07,11,11,38,16.70
2008,07,11,11,39,16.70
2008,07,11,11,40,16.70
2008,07,11,11,41,16.70
2008,07,11,11,42,16.70
2008,07,11,11,43,16.70
2008,07,11,11,44,16.80
2008,07,11,11,45,16.90
2008,07,11,11,46,17.10
2008,07,11,11,47,17.20
2008,07,11,11,48,17.40
2008,07,11,11,49,17.50
2008,07,11,11,50,17.60
2008,07,11,11,51,17.70
2008,07,11,11,52,17.80
2008,07,11,11,53,17.90
2008,07,11,11,54,17.90
2008,07,11,11,55,17.90
2008,07,11,11,56,18.00
2008,07,11,11,57,18.20
2008,07,11,11,58,18.20
2008,07,11,11,59,18.20
2008,07,11,12,00,18.30
2008,07,11,12,01,18.30
2008,07,11,12,02,18.40
2008,07,11,12,03,18.40
2008,07,11,12,04,18.50
2008,07,11,12,05,18.50
2008,07,11,12,06,18.50
2008,07,11,12,07,18.60
2008,07,11,12,08,18.60
2008,07,11,12,09,18.60
2008,07,11,12,10,18.60
2008,07,11,12,11,18.60
2008,07,11,12,12,18.50
2008,07,11,12,13,18.50
2008,07,11,12,14,18.50
2008,07,11,12,15,18.50
2008,07,11,12,16,18.60
2008,07,11,12,17,18.60
2008,07,11,12,18,18.70
2008,07,11,12,19,18.70
2008,07,11,12,20,18.70
2008,07,11,12,21,18.70
2008,07,11,12,22,18.60
2008,07,11,12,23,18.60
2008,07,11,12,24,18.50
2008,07,11,12,25,18.40
2008,07,11,12,26,18.40
2008,07,11,12,27,18.40
2008,07,11,12,28,18.40
2008,07,11,12,29,18.50
2008,07,11,12,30,18.50
2008,07,11,12,31,18.60
2008,07,11,12,32,18.70
2008,07,11,12,33,18.70
2008,07,11,12,34,18.80
2008,07,11,12,35,18.80
2008,07,11,12,36,18.90
2008,07,11,12,37,18.90
2008,07,11,12,38,18.90
2008,07,11,12,39,18.90
2008,07,11,12,40,18.90
2008,07,11,12,41,18.80
2008,07,11,12,42,18.80
2008,07,11,12,43,18.80
2008,07,11,12,44,18.90
2008,07,11,12,45,18.90
2008,07,11,12,46,18.90
2008,07,11,12,47,18.90
2008,07,11,12,48,18.90
2008,07,11,12,49,18.90
2008,07,11,12,50,18.80
2008,07,11,12,51,18.80
2008,07,11,12,52,18.80
2008,07,11,12,53,18.90
2008,07,11,12,54,19.00
2008,07,11,12,55,19.00
2008,07,11,12,56,18.90
2008,07,11,12,57,18.90
2008,07,11,12,58,18.90
2008,07,11,12,59,19.10
2008,07,11,13,00,19.10
2008,07,11,13,01,19.20
2008,07,11,13,02,19.30
2008,07,11,13,03,19.30
2008,07,11,13,04,19.30
2008,07,11,13,05,19.40
2008,07,11,13,06,19.60
2008,07,11,13,07,19.70
2008,07,11,13,08,19.80
2008,07,11,13,09,19.80
2008,07,11,13,10,19.80
2008,07,11,13,11,19.70
2008,07,11,13,12,19.70
2008,07,11,13,13,19.70
2008,07,11,13,14,19.60
2008,07,11,13,15,19.60
2008,07,11,13,16,19.40
2008,07,11,13,17,19.40
2008,07,11,13,18,19.40
2008,07,11,13,19,19.40
2008,07,11,13,20,19.40
2008,07,11,13,21,19.30
2008,07,11,13,22,19.40
2008,07,11,13,23,19.30
2008,07,11,13,24,19.30
2008,07,11,13,25,19.20
2008,07,11,13,26,19.20
2008,07,11,13,27,19.30
2008,07,11,13,28,19.30
2008,07,11,13,29,19.30
2008,07,11,13,30,19.30
2008,07,11,13,31,19.40
2008,07,11,13,32,19.50
2008,07,11,13,33,19.50
2008,07,11,13,34,19.50
2008,07,11,13,35,19.50
2008,07,11,13,36,19.50
2008,07,11,13,37,19.60
2008,07,11,13,38,19.50
2008,07,11,13,39,19.30
2008,07,11,13,40,19.20
2008,07,11,13,41,19.10
2008,07,11,13,42,19.10
2008,07,11,13,43,19.10
2008,07,11,13,44,19.10
2008,07,11,13,45,19.20
2008,07,11,13,46,19.40
2008,07,11,13,47,19.40
2008,07,11,13,48,19.50
2008,07,11,13,49,19.60
2008,07,11,13,50,19.70
2008,07,11,13,51,19.70
2008,07,11,13,52,19.80
2008,07,11,13,53,19.90
2008,07,11,13,54,20.00
2008,07,11,13,55,20.10
2008,07,11,13,56,20.20
2008,07,11,13,57,20.20
2008,07,11,13,58,20.30
2008,07,11,13,59,20.40
2008,07,11,14,00,20.50
2008,07,11,14,01,20.60
2008,07,11,14,02,20.60
2008,07,11,14,03,20.60
2008,07,11,14,04,20.60
2008,07,11,14,05,20.50
2008,07,11,14,06,20.40
2008,07,11,14,07,20.40
2008,07,11,14,08,20.50
2008,07,11,14,09,20.60
2008,07,11,14,10,20.60
2008,07,11,14,11,20.70
2008,07,11,14,12,20.70
2008,07,11,14,13,20.60
2008,07,11,14,14,20.60
2008,07,11,14,15,20.70
2008,07,11,14,16,20.70
2008,07,11,14,17,20.80
2008,07,11,14,18,20.90
2008,07,11,14,19,20.90
2008,07,11,14,20,20.90
2008,07,11,14,21,21.00
2008,07,11,14,22,21.10
2008,07,11,14,23,21.20
2008,07,11,14,24,21.30
2008,07,11,14,25,21.30
2008,07,11,14,26,21.30
2008,07,11,14,27,21.20
2008,07,11,14,28,21.20
2008,07,11,14,29,21.30
2008,07,11,14,30,21.30
2008,07,11,14,31,21.30
2008,07,11,14,32,21.40
2008,07,11,14,33,21.50
2008,07,11,14,34,21.40
2008,07,11,14,35,21.30
2008,07,11,14,36,21.10
2008,07,11,14,37,21.10
2008,07,11,14,38,21.00
2008,07,11,14,39,21.00
2008,07,11,14,40,21.10
2008,07,11,14,41,21.10
2008,07,11,14,42,21.10
2008,07,11,14,43,21.20
2008,07,11,14,44,21.30
2008,07,11,14,45,21.30
2008,07,11,14,46,21.40
2008,07,11,14,47,21.40
2008,07,11,14,48,21.60
2008,07,11,14,49,21.70
2008,07,11,14,50,21.70
2008,07,11,14,51,21.60
2008,07,11,14,52,21.60
2008,07,11,14,53,21.70
2008,07,11,14,54,21.80
2008,07,11,14,55,21.80
2008,07,11,14,56,21.80
2008,07,11,14,57,21.70
2008,07,11,14,58,21.60
2008,07,11,14,59,21.60
2008,07,11,15,00,21.60
2008,07,11,15,01,21.60
2008,07,11,15,02,21.60
2008,07,11,15,03,21.60
2008,07,11,15,04,21.60
2008,07,11,15,05,21.70
2008,07,11,15,06,21.70
2008,07,11,15,07,21.80
2008,07,11,15,08,21.90
2008,07,11,15,09,22.00
2008,07,11,15,10,22.00
2008,07,11,15,11,22.00
2008,07,11,15,12,22.00
2008,07,11,15,13,22.00
2008,07,11,15,14,22.00
2008,07,11,15,15,22.00
2008,07,11,15,16,22.00
2008,07,11,15,17,22.00
2008,07,11,15,18,22.00
2008,07,11,15,19,22.10
2008,07,11,15,20,22.20
2008,07,11,15,21,22.10
2008,07,11,15,22,22.00
2008,07,11,15,23,21.90
2008,07,11,15,24,21.80
2008,07,11,15,25,21.70
2008,07,11,15,26,21.70
2008,07,11,15,27,21.70
2008,07,11,15,28,21.80
2008,07,11,15,29,21.70
2008,07,11,15,30,21.60
2008,07,11,15,31,21.50
2008,07,11,15,32,21.40
2008,07,11,15,33,21.40
2008,07,11,15,34,21.40
2008,07,11,15,35,21.50
2008,07,11,15,36,21.50
2008,07,11,15,37,21.40
2008,07,11,15,38,21.20
2008,07,11,15,39,21.10
2008,07,11,15,40,21.00
2008,07,11,15,41,21.00
2008,07,11,15,42,21.10
2008,07,11,15,43,21.30
2008,07,11,15,44,21.40
2008,07,11,15,45,21.50
2008,07,11,15,46,21.60
2008,07,11,15,47,21.60
2008,07,11,15,48,21.60
2008,07,11,15,49,21.60
2008,07,11,15,50,21.50
2008,07,11,15,51,21.40
2008,07,11,15,52,21.30
2008,07,11,15,53,21.40
2008,07,11,15,54,21.50
2008,07,11,15,55,21.60
2008,07,11,15,56,21.60
2008,07,11,15,57,21.70
2008,07,11,15,58,21.70
2008,07,11,15,59,21.70
2008,07,11,16,00,21.60
2008,07,11,16,01,21.60
2008,07,11,16,02,21.70
2008,07,11,16,03,21.80
2008,07,11,16,04,21.80
2008,07,11,16,05,21.80
2008,07,11,16,06,21.60
2008,07,11,16,07,21.60
2008,07,11,16,08,21.60
2008,07,11,16,09,21.60
2008,07,11,16,10,21.60
2008,07,11,16,11,21.70
2008,07,11,16,12,21.70
2008,07,11,16,13,21.80
2008,07,11,16,14,21.90
2008,07,11,16,15,22.00
2008,07,11,16,16,22.00
2008,07,11,16,17,22.10
2008,07,11,16,18,22.30
2008,07,11,16,19,22.30
2008,07,11,16,20,22.20
2008,07,11,16,21,22.20
2008,07,11,16,22,22.30
2008,07,11,16,23,22.30
2008,07,11,16,24,22.30
2008,07,11,16,25,22.30
2008,07,11,16,26,22.30
2008,07,11,16,27,22.30
2008,07,11,16,28,22.20
2008,07,11,16,29,22.00
2008,07,11,16,30,22.00
2008,07,11,16,31,22.00
2008,07,11,16,32,22.00
2008,07,11,16,33,22.00
2008,07,11,16,34,21.90
2008,07,11,16,35,21.90
2008,07,11,16,36,21.80
2008,07,11,16,37,21.70
2008,07,11,16,38,21.70
2008,07,11,16,39,21.70
2008,07,11,16,40,21.60
2008,07,11,16,41,21.70
2008,07,11,16,42,21.80
2008,07,11,16,43,21.80
2008,07,11,16,44,21.90
2008,07,11,16,45,22.00
2008,07,11,16,46,22.10
2008,07,11,16,47,22.10
2008,07,11,16,48,22.20
2008,07,11,16,49,22.30
2008,07,11,16,50,22.30
2008,07,11,16,51,22.40
2008,07,11,16,52,22.50
2008,07,11,16,53,22.60
2008,07,11,16,54,22.60
2008,07,11,16,55,22.60
2008,07,11,16,56,22.60
2008,07,11,16,57,22.80
2008,07,11,16,58,22.90
2008,07,11,16,59,22.90
2008,07,11,17,00,22.90
2008,07,11,17,01,22.90
2008,07,11,17,02,22.90
2008,07,11,17,03,22.90
2008,07,11,17,04,22.90
2008,07,11,17,05,22.90
2008,07,11,17,06,22.90
2008,07,11,17,07,22.90
2008,07,11,17,08,23.10
2008,07,11,17,09,23.10
2008,07,11,17,10,23.20
2008,07,11,17,11,23.10
2008,07,11,17,12,23.00
2008,07,11,17,13,22.90
2008,07,11,17,14,22.80
2008,07,11,17,15,22.80
2008,07,11,17,16,22.80
2008,07,11,17,17,22.70
2008,07,11,17,18,22.70
2008,07,11,17,19,22.60
2008,07,11,17,20,22.60
2008,07,11,17,21,22.50
2008,07,11,17,22,22.50
2008,07,11,17,23,22.40
2008,07,11,17,24,22.30
2008,07,11,17,25,22.20
2008,07,11,17,26,22.10
2008,07,11,17,27,22.00
2008,07,11,17,28,22.00
2008,07,11,17,29,22.00
2008,07,11,17,30,21.90
2008,07,11,17,31,21.80
2008,07,11,17,32,21.80
2008,07,11,17,33,21.70
2008,07,11,17,34,21.80
2008,07,11,17,35,21.80
2008,07,11,17,36,21.80
2008,07,11,17,37,21.90
2008,07,11,17,38,22.00
2008,07,11,17,39,22.00
2008,07,11,17,40,22.10
2008,07,11,17,41,22.10
2008,07,11,17,42,22.20
2008,07,11,17,43,22.20
2008,07,11,17,44,22.30
2008,07,11,17,45,22.30
2008,07,11,17,46,22.20
2008,07,11,17,47,22.10
2008,07,11,17,48,22.00
2008,07,11,17,49,22.00
2008,07,11,17,50,21.80
2008,07,11,17,51,21.70
2008,07,11,17,52,21.60
2008,07,11,17,53,21.60
2008,07,11,17,54,21.50
2008,07,11,17,55,21.40
2008,07,11,17,56,21.40
2008,07,11,17,57,21.50
2008,07,11,17,58,21.60
2008,07,11,17,59,21.60
2008,07,11,18,00,21.80
2008,07,11,18,01,21.90
2008,07,11,18,02,22.00
2008,07,11,18,03,22.10
2008,07,11,18,04,22.20
2008,07,11,18,05,22.20
2008,07,11,18,06,22.30
2008,07,11,18,07,22.30
2008,07,11,18,08,22.30
2008,07,11,18,09,22.20
2008,07,11,18,10,22.20
2008,07,11,18,11,22.10
2008,07,11,18,12,22.20
2008,07,11,18,13,22.20
2008,07,11,18,14,22.20
2008,07,11,18,15,22.30